Weather History for KDUH - October, 2012

Change the Weather History Date:

Saturday, October 20, 2012

  Actual Average (KTOL) Record (KTOL)
Temperature  
Mean Temperature 50 °F 51 °F  
Max Temperature 56 °F 61 °F 82 °F (1920)
Min Temperature 45 °F 41 °F 18 °F (1972)
Degree Days  
Heating Degree Days 14 14  
Month to date heating degree days 227  
Since 1 July heating degree days 351  
Cooling Degree Days 0 0  
Month to date cooling degree days 8  
Year to date cooling degree days 792  
Moisture  
Dew Point 43 °F    
Average Humidity 79    
Maximum Humidity 91    
Minimum Humidity 60    
Precipitation  
Precipitation 0.00 in 0.08 in - ()
Month to date precipitation 1.70  
Year to date precipitation 27.80  
Snow  
Snow 0.00 in 0.00 in - ()
Month to date snowfall 0.1  
Since 1 July snowfall 0.1  
Since 1 September snowfall 0.1  
Snow Depth -    
Sea Level Pressure  
Sea Level Pressure 29.74 in    
Wind  
Wind Speed 7 mph (WSW)    
Max Wind Speed 17 mph    
Max Gust Speed 23 mph    
Visibility 10 miles    
Events      
T = Trace of Precipitation, MM = Missing Value Source: NWS Daily Summary

Daily Weather History Graph

Daily Weather History Graph

Search for Another Location

Airport or City:

Trip Planner

Search our weather history database for the weather conditions in past years. The results will help you decide how hot, cold, wet, or windy it might be!

Date:

Astronomy

Oct. 20, 2012 Rise Set
Actual Time 7:53 AM EDT 6:44 PM EDT
Civil Twilight 7:24 AM EDT 7:13 PM EDT
Nautical Twilight 6:52 AM EDT 7:45 PM EDT
Astronomical Twilight 6:20 AM EDT 8:17 PM EDT
Moon 1:30 PM EDT (10/20) 11:27 PM EDT (10/20)
Length of Visible Light 11h 48m
Length of Day
10h 51m
Waxing Crescent, 34% of the Moon is Illuminated
Oct 20
Waxing Crescent
Oct 21
First Quarter
Oct 29
Full
Nov 6
Last Quarter
Nov 13
New

Hourly Weather History & Observations

Time (EDT) Temp. Windchill Dew Point Humidity Pressure Visibility Wind Dir Wind Speed Gust Speed Precip Events Conditions
12:15 AM 46.4 °F 42.9 °F 43.9 °F 91% 29.60 in 10.0 mi SSW 6.9 mph - N/A   Overcast
12:35 AM 46.6 °F - 43.9 °F 90% 29.61 in 10.0 mi SW 5.8 mph - N/A   Overcast
12:55 AM 46.6 °F - 43.9 °F 90% 29.61 in 10.0 mi SW 4.6 mph - N/A   Overcast
1:15 AM 46.8 °F - 43.9 °F 90% 29.61 in 10.0 mi SW 4.6 mph - N/A   Overcast
1:35 AM 46.9 °F - 44.1 °F 90% 29.61 in 10.0 mi SW 5.8 mph - N/A   Overcast
1:55 AM 46.9 °F - 44.1 °F 90% 29.61 in 10.0 mi SW 5.8 mph - N/A   Overcast
2:15 AM 46.9 °F - 44.1 °F 90% 29.62 in 10.0 mi SSW 4.6 mph - N/A   Overcast
2:35 AM 46.8 °F - 44.1 °F 90% 29.62 in 10.0 mi SSW 4.6 mph - N/A   Overcast
2:55 AM 46.9 °F - 44.1 °F 90% 29.62 in 10.0 mi SW 5.8 mph - N/A   Overcast
3:15 AM 46.9 °F - 43.7 °F 88% 29.62 in 10.0 mi WSW 8.1 mph - N/A   Overcast
3:35 AM 46.9 °F - 43.2 °F 87% 29.63 in 10.0 mi WSW 5.8 mph - N/A   Overcast
3:55 AM 46.9 °F - 43.0 °F 86% 29.63 in 10.0 mi WSW 5.8 mph - N/A   Overcast
4:15 AM 46.8 °F - 43.2 °F 87% 29.64 in 10.0 mi WSW 5.8 mph - N/A   Overcast
4:35 AM 46.6 °F - 43.0 °F 87% 29.64 in 10.0 mi WSW 6.9 mph - N/A   Overcast
4:55 AM 46.4 °F 43.5 °F 43.0 °F 88% 29.64 in 10.0 mi SW 5.8 mph - N/A   Overcast
5:15 AM 46.6 °F - 43.2 °F 88% 29.64 in 10.0 mi WSW 5.8 mph - N/A   Overcast
5:35 AM 46.4 °F 42.9 °F 42.8 °F 87% 29.64 in 10.0 mi SW 6.9 mph - N/A   Overcast
5:55 AM 46.2 °F 43.3 °F 42.8 °F 88% 29.65 in 10.0 mi SW 5.8 mph - N/A   Overcast
6:15 AM 45.9 °F 42.9 °F 42.8 °F 89% 29.65 in 10.0 mi SW 5.8 mph - N/A   Mostly Cloudy
6:35 AM 45.9 °F 42.9 °F 42.4 °F 88% 29.65 in 7.0 mi SW 5.8 mph - N/A   Drizzle
6:55 AM 45.9 °F 42.9 °F 42.8 °F 89% 29.65 in 7.0 mi SW 5.8 mph - N/A   Light Drizzle
7:15 AM 45.9 °F 42.3 °F 42.4 °F 88% 29.66 in 10.0 mi WSW 6.9 mph - N/A   Overcast
7:35 AM 46.0 °F 43.1 °F 42.3 °F 87% 29.66 in 10.0 mi SW 5.8 mph - N/A   Overcast
7:55 AM 46.4 °F 42.9 °F 42.3 °F 85% 29.67 in 10.0 mi WSW 6.9 mph - N/A   Overcast
8:15 AM 46.4 °F 42.9 °F 42.3 °F 85% 29.68 in 10.0 mi SW 6.9 mph - N/A   Light Drizzle
8:35 AM 46.4 °F 42.4 °F 42.3 °F 85% 29.68 in 10.0 mi SW 8.1 mph - N/A   Overcast
8:55 AM 46.6 °F - 42.6 °F 86% 29.69 in 10.0 mi WSW 9.2 mph - N/A   Overcast
9:15 AM 46.8 °F - 42.4 °F 85% 29.69 in 10.0 mi WSW 8.1 mph - N/A   Overcast
9:35 AM 46.9 °F - 42.8 °F 86% 29.70 in 10.0 mi WSW 8.1 mph 17.3 mph N/A   Overcast
9:55 AM 47.3 °F - 42.8 °F 84% 29.71 in 10.0 mi WSW 8.1 mph - N/A   Overcast
10:15 AM 47.3 °F - 42.8 °F 84% 29.71 in 10.0 mi WSW 12.7 mph 17.3 mph N/A   Overcast
10:35 AM 48.0 °F - 43.3 °F 84% 29.72 in 10.0 mi WSW 11.5 mph 16.1 mph N/A   Overcast
10:55 AM 49.1 °F - 43.5 °F 81% 29.72 in 10.0 mi WSW 10.4 mph - N/A   Overcast
11:15 AM 49.3 °F - 43.5 °F 81% 29.73 in 10.0 mi West 8.1 mph 16.1 mph N/A   Overcast
11:35 AM 49.5 °F - 43.7 °F 81% 29.73 in 10.0 mi West 13.8 mph 18.4 mph N/A   Overcast
11:55 AM 51.1 °F - 44.4 °F 78% 29.73 in 10.0 mi WSW 10.4 mph 16.1 mph N/A   Overcast
12:15 PM 51.8 °F - 43.5 °F 73% 29.74 in 10.0 mi West 13.8 mph 18.4 mph N/A   Overcast
12:35 PM 51.6 °F - 43.3 °F 73% 29.75 in 10.0 mi West 10.4 mph 17.3 mph N/A   Overcast
12:55 PM 52.2 °F - 43.7 °F 73% 29.75 in 10.0 mi West 11.5 mph 17.3 mph N/A   Overcast
1:15 PM 52.5 °F - 43.3 °F 71% 29.75 in 10.0 mi West 12.7 mph 18.4 mph N/A   Overcast
1:35 PM 53.2 °F - 42.8 °F 68% 29.75 in 10.0 mi West 13.8 mph 17.3 mph N/A   Mostly Cloudy
1:55 PM 52.9 °F - 43.0 °F 69% 29.76 in 10.0 mi West 8.1 mph 17.3 mph N/A   Mostly Cloudy
2:15 PM 52.9 °F - 42.8 °F 69% 29.75 in 10.0 mi WSW 10.4 mph 18.4 mph N/A   Overcast
2:35 PM 53.6 °F - 43.0 °F 67% 29.75 in 10.0 mi West 15.0 mph 21.9 mph N/A   Overcast
2:55 PM 55.2 °F - 42.8 °F 63% 29.76 in 10.0 mi West 13.8 mph 20.7 mph N/A   Overcast
3:15 PM 55.8 °F - 42.4 °F 61% 29.76 in 10.0 mi West 10.4 mph 21.9 mph N/A   Mostly Cloudy
3:35 PM 55.0 °F - 42.4 °F 63% 29.77 in 10.0 mi WSW 17.3 mph 23.0 mph N/A   Scattered Clouds
3:55 PM 56.5 °F - 42.6 °F 60% 29.78 in 10.0 mi West 12.7 mph 18.4 mph N/A   Scattered Clouds
4:15 PM 54.7 °F - 42.4 °F 63% 29.78 in 10.0 mi West 12.7 mph 18.4 mph N/A   Mostly Cloudy
4:35 PM 54.3 °F - 42.8 °F 65% 29.79 in 10.0 mi West 10.4 mph 19.6 mph N/A   Mostly Cloudy
4:55 PM 53.1 °F - 43.0 °F 69% 29.80 in 10.0 mi West 6.9 mph 16.1 mph N/A   Overcast
5:15 PM 53.1 °F - 43.2 °F 69% 29.81 in 10.0 mi WSW 10.4 mph - N/A   Overcast
5:35 PM 53.2 °F - 43.3 °F 69% 29.82 in 10.0 mi West 11.5 mph 18.4 mph N/A   Overcast
5:55 PM 52.7 °F - 42.6 °F 69% 29.82 in 10.0 mi West 9.2 mph 18.4 mph N/A   Overcast
6:15 PM 52.7 °F - 43.7 °F 71% 29.83 in 10.0 mi West 5.8 mph - N/A   Overcast
6:35 PM 52.2 °F - 43.5 °F 72% 29.84 in 10.0 mi WSW 6.9 mph - N/A   Overcast
6:55 PM 52.0 °F - 43.2 °F 72% 29.85 in 10.0 mi WSW 8.1 mph - N/A   Overcast
7:15 PM 52.0 °F - 43.2 °F 72% 29.85 in 10.0 mi West 8.1 mph - N/A   Overcast
7:35 PM 51.4 °F - 43.2 °F 73% 29.86 in 10.0 mi West 5.8 mph - N/A   Overcast
7:55 PM 51.3 °F - 43.7 °F 75% 29.87 in 10.0 mi WSW 5.8 mph - N/A   Overcast
8:15 PM 51.3 °F - 43.7 °F 75% 29.87 in 10.0 mi WSW 8.1 mph - N/A   Overcast
8:35 PM 51.4 °F - 43.7 °F 75% 29.87 in 10.0 mi WSW 5.8 mph - N/A   Overcast
8:55 PM 51.4 °F - 43.7 °F 75% 29.87 in 10.0 mi WSW 5.8 mph - N/A   Overcast
9:15 PM 50.9 °F - 43.7 °F 76% 29.88 in 10.0 mi WSW 5.8 mph - N/A   Overcast
9:35 PM 50.9 °F - 43.7 °F 76% 29.89 in 10.0 mi WSW 4.6 mph - N/A   Overcast
9:55 PM 50.0 °F - 43.7 °F 79% 29.90 in 10.0 mi WSW 4.6 mph - N/A   Scattered Clouds
10:15 PM 49.5 °F - 43.5 °F 80% 29.91 in 10.0 mi SW 4.6 mph - N/A   Mostly Cloudy
10:35 PM 49.1 °F - 43.2 °F 80% 29.91 in 10.0 mi WSW 4.6 mph - N/A   Mostly Cloudy
10:55 PM 49.1 °F - 43.2 °F 80% 29.91 in 10.0 mi WSW 4.6 mph - N/A   Mostly Cloudy
11:15 PM 48.6 °F - 43.0 °F 81% 29.92 in 10.0 mi Calm Calm - N/A   Mostly Cloudy
11:35 PM 48.4 °F - 43.2 °F 82% 29.93 in 10.0 mi Calm Calm - N/A   Overcast
11:55 PM 48.2 °F - 42.8 °F 82% 29.93 in 10.0 mi Calm Calm - N/A   Overcast